Terug naar catalogus

STARLINK-31606

ActiefCommunicatieVLEO
NORAD 59571·PAYLOAD·🇺🇸 United States

Gelanceerd Apr 23, 2024 vanaf Cape Canaveral Space Force Station

Loading…

Volgende Passages (komende 24 uur)

TLE

VersSource: CelesTrak SupGP

Epoch: Sep 15, 2026, 02:05 UTC

1 59571C 24076H   26258.08729167 -.00010432  00000+0 -37791-3 0  2588
2 59571  43.0015  18.9737 0001463 271.5802  77.0970 15.27576397    19

Volg STARLINK-31606 in realtime met AllMySat

Download on the App Store